Location: Unspecified
(43.4354°N, 0.0000°E)
Time: 05:47:51
(UTC+00:00)

Courier 1B - Pass Details

Date: 26 June 2019
Orbit: 963 x 1209 km, 28.3° (Epoch: 18 July)

Event Time Altitude Azimuth Distance (km) Brightness Sun altitude
Rises 20:32:27 0° 253° (WSW) 3,866 11.1 -7.6°
Reaches altitude 10° 20:36:05 10° 235° (SW) 2,957 10.2 -8.1°
Maximum altitude 20:40:47 18° 195° (SSW) 2,439 9.3 -8.7°
Drops below altitude 10° 20:45:39 10° 154° (SSE) 3,064 9.5 -9.3°
Enters shadow 20:45:54 - 153° (SSE) 3,119 9.5 -9.4°
Sets 20:49:31 0° 137° (SE) 4,059 - -9.8°
